FW7496 Weather Reports


time (UTC)temp
C
wind
direction
speed
KPH
gust
KPH
rain 1hr
cm
rain 24hr
cm
rain mn
cm
humidity
%
barometer
mb
20260506124915 11 24 3.2 4.8 0.00 0.00 0.00 89 1062.3
20260506124412 11 100 3.2 11.3 0.00 0.00 0.00 89 1062.1
20260506123910 11 337 4.8 6.4 0.00 0.00 0.00 89 1061.9
20260506123408 11 9 3.2 11.3 0.00 0.00 0.00 89 1061.6
20260506122905 11 10 3.2 16.1 0.00 0.00 0.00 89 1061.4
20260506122402 11 23 3.2 12.9 0.00 0.00 0.00 89 1061.0
20260506121900 11 29 3.2 9.7 0.00 0.00 0.00 89 1060.9
20260506121357 11 316 3.2 9.7 0.00 0.00 0.00 90 1060.7
20260506120854 11 2 6.4 11.3 0.00 0.00 0.00 90 1061.0
20260506120351 11 24 3.2 3.2 0.00 0.00 0.00 89 1060.5
20260506115849 11 350 3.2 11.3 0.00 0.00 0.00 89 1060.6
20260506115347 11 44 3.2 6.4 0.00 0.00 0.00 89 1060.5
20260506114844 11 24 3.2 9.7 0.00 0.00 0.00 89 1060.6
20260506114342 11 322 4.8 12.9 0.00 0.00 0.00 89 1060.6
20260506113841 11 305 6.4 9.7 0.00 0.00 0.00 89 1060.8
20260506113338 11 319 6.4 11.3 0.00 0.00 0.00 89 1060.6
20260506112834 11 313 1.6 9.7 0.00 0.00 0.00 89 1060.6
20260506112331 12 228 3.2 11.3 0.00 0.00 0.00 89 1060.7
20260506111829 12 22 3.2 6.4 0.00 0.00 0.00 89 1060.7
20260506111327 12 1 1.6 6.4 0.00 0.00 0.00 89 1060.6
20260506110824 12 44 1.6 6.4 0.00 0.00 0.00 89 1060.8
20260506110321 12 320 6.4 6.4 0.00 0.00 0.00 89 1060.6
20260506105818 12 315 6.4 14.5 0.00 0.00 0.00 88 1060.4
20260506105314 12 331 4.8 12.9 0.00 0.00 0.00 88 1060.4
20260506104812 12 358 3.2 11.3 0.00 0.00 0.00 88 1060.2
20260506104310 12 331 1.6 4.8 0.00 0.00 0.00 88 1060.2
20260506103807 12 317 1.6 6.4 0.00 0.00 0.00 88 1059.9
20260506103304 12 336 6.4 11.3 0.00 0.00 0.00 88 1059.7
20260506102802 12 281 1.6 4.8 0.00 0.00 0.00 88 1059.4
20260506102259 12 17 3.2 4.8 0.00 0.00 0.00 88 1059.4
20260506101757 12 12 1.6 11.3 0.00 0.00 0.00 88 1059.5
20260506101252 12 27 1.6 4.8 0.00 0.00 0.00 88 1059.3
20260506100750 12 14 3.2 4.8 0.00 0.00 0.00 89 1059.2
20260506100248 12 40 3.2 4.8 0.00 0.00 0.00 88 1059.3
20260506095747 12 340 3.2 4.8 0.00 0.00 0.00 88 1059.4
20260506095243 12 260 3.2 4.8 0.00 0.00 0.00 88 1059.2
20260506094740 12 59 3.2 9.7 0.00 0.00 0.00 88 1059.4
20260506094238 12 314 4.8 6.4 0.00 0.00 0.00 88 1059.4
20260506093737 12 70 0.0 4.8 0.00 0.00 0.00 88 1059.2
20260506093233 12 9 4.8 9.7 0.00 0.00 0.00 88 1059.2
20260506092731 12 22 3.2 4.8 0.00 0.00 0.00 88 1059.1
20260506092229 12 33 3.2 6.4 0.00 0.00 0.00 88 1059.0
20260506091726 12 40 1.6 6.4 0.00 0.00 0.00 88 1058.8
20260506091223 12 341 3.2 9.7 0.00 0.00 0.00 88 1059.0
20260506090721 12 39 3.2 6.4 0.00 0.00 0.00 89 1059.0
20260506090218 12 40 4.8 6.4 0.00 0.00 0.00 89 1058.7
20260506085715 12 1 4.8 9.7 0.00 0.00 0.00 89 1058.8
20260506085211 12 323 1.6 6.4 0.00 0.00 0.00 89 1058.8
20260506084708 12 53 0.0 4.8 0.00 0.00 0.00 89 1058.8
20260506084204 12 356 1.6 6.4 0.00 0.00 0.00 89 1059.1
20260506083701 13 357 3.2 4.8 0.00 0.00 0.00 89 1059.1
20260506083159 13 40 0.0 3.2 0.00 0.00 0.00 89 1058.8
20260506082656 13 45 1.6 9.7 0.00 0.00 0.00 89 1059.0
20260506082156 13 6 4.8 6.4 0.00 0.00 0.00 89 1058.8
20260506081654 13 21 3.2 6.4 0.00 0.00 0.00 89 1058.7
20260506081152 13 312 6.4 9.7 0.00 0.00 0.00 88 1058.9
20260506080650 13 354 1.6 6.4 0.00 0.00 0.00 89 1059.0
20260506080146 13 78 3.2 4.8 0.00 0.00 0.00 89 1058.8
20260506073130 13 334 4.8 4.8 0.00 0.00 0.00 90 1058.6
20260506072627 13 71 0.0 4.8 0.00 0.00 0.00 90 1058.6
20260506072125 13 16 3.2 6.4 0.00 0.00 0.00 90 1058.6
20260506071622 13 304 3.2 4.8 0.00 0.00 0.00 90 1058.6
20260506071119 13 355 0.0 4.8 0.00 0.00 0.00 90 1058.5
20260506070616 13 345 1.6 3.2 0.00 0.00 0.00 89 1058.6
20260506070114 13 305 0.0 3.2 0.00 0.00 0.00 89 1058.5
20260506062050 14 16 1.6 3.2 0.00 0.00 0.00 85 1057.9
20260506061546 15 36 1.6 4.8 0.00 0.00 0.00 84 1058.0
20260506061044 15 16 1.6 4.8 0.00 0.00 0.00 84 1058.0
20260506060542 15 3 0.0 3.2 0.00 0.00 0.00 84 1058.0
20260506051011 16 20 1.6 4.8 0.00 0.00 0.00 82 1058.3
20260506050509 17 46 6.4 9.7 0.00 0.00 0.00 81 1058.3
20260506044959 17 33 1.6 4.8 0.00 0.00 0.00 80 1058.3
20260506044458 17 79 0.0 6.4 0.00 0.00 0.00 80 1058.1
20260506043954 17 8 1.6 3.2 0.00 0.00 0.00 80 1058.2
20260506043451 17 63 3.2 4.8 0.00 0.00 0.00 79 1058.1
20260506042949 17 38 1.6 4.8 0.00 0.00 0.00 79 1058.0
20260506042448 17 40 8.0 12.9 0.00 0.00 0.00 79 1057.8
20260506041946 18 46 1.6 9.7 0.00 0.00 0.00 78 1057.9
20260506041444 18 78 1.6 4.8 0.00 0.00 0.00 78 1057.7
20260506040941 18 63 3.2 11.3 0.00 0.00 0.00 77 1057.9
20260506040438 18 74 1.6 6.4 0.00 0.00 0.00 77 1057.9
20260506035934 18 72 1.6 4.8 0.00 0.00 0.00 77 1057.7
20260506035432 18 285 3.2 4.8 0.00 0.00 0.00 77 1057.8
20260506034928 18 81 1.6 4.8 0.00 0.00 0.00 77 1057.6
20260506034425 18 45 1.6 3.2 0.00 0.00 0.00 76 1057.7
20260506033922 18 93 1.6 1.6 0.00 0.00 0.00 76 1057.8
20260506033420 18 41 1.6 4.8 0.00 0.00 0.00 75 1057.8
20260506032916 19 43 4.8 11.3 0.00 0.00 0.00 75 1057.7
20260506032413 19 5 1.6 6.4 0.00 0.00 0.00 74 1057.7
20260506031910 19 33 1.6 4.8 0.00 0.00 0.00 74 1057.7
20260506031407 19 29 3.2 4.8 0.00 0.00 0.00 73 1057.5
20260506030905 20 57 6.4 9.7 0.00 0.00 0.00 74 1057.3
20260506030403 20 17 1.6 4.8 0.00 0.00 0.00 74 1056.9
20260506025859 20 70 1.6 4.8 0.00 0.00 0.00 73 1056.8
20260506025356 20 20 1.6 6.4 0.00 0.00 0.00 74 1056.7
20260506024853 20 114 0.0 4.8 0.00 0.00 0.00 74 1056.6
20260506024350 20 29 1.6 9.7 0.00 0.00 0.00 74 1056.5
20260506023846 20 256 0.0 4.8 0.00 0.00 0.00 74 1056.4
20260506023343 20 31 3.2 12.9 0.00 0.00 0.00 73 1056.1
20260506022840 21 17 1.6 6.4 0.00 0.00 0.00 73 1055.9
20260506022337 21 20 1.6 6.4 0.00 0.00 0.00 73 1055.8
20260506021835 21 78 3.2 9.7 0.00 0.00 0.00 72 1055.9
20260506021332 21 79 4.8 11.3 0.00 0.00 0.00 72 1056.0
20260506020828 21 93 0.0 11.3 0.00 0.00 0.00 72 1055.7
20260506020326 22 26 3.2 9.7 0.00 0.00 0.00 72 1055.4
20260506015824 22 71 3.2 12.9 0.00 0.00 0.00 71 1055.2
20260506015321 22 350 1.6 4.8 0.00 0.00 0.00 71 1054.9
20260506014818 22 41 3.2 11.3 0.00 0.00 0.00 70 1054.9
20260506014315 22 19 4.8 9.7 0.00 0.00 0.00 70 1054.5
20260506013811 23 51 3.2 6.4 0.00 0.00 0.00 69 1054.4
20260506013309 23 17 6.4 6.4 0.00 0.00 0.00 68 1054.4
20260506012805 23 51 3.2 9.7 0.00 0.00 0.00 68 1054.4
20260506012307 24 21 4.8 6.4 0.00 0.00 0.00 68 1054.2
20260506011759 25 60 1.6 9.7 0.00 0.00 0.00 68 1054.1
20260506011256 25 69 4.8 6.4 0.00 0.00 0.00 67 1053.8
20260506010754 25 30 3.2 9.7 0.00 0.00 0.00 67 1053.6
20260506010251 26 52 1.6 6.4 0.00 0.00 0.00 66 1053.5
20260506005748 26 13 3.2 4.8 0.00 0.00 0.00 66 1053.4
20260506005245 26 24 0.0 1.6 0.00 0.00 0.00 69 1053.2
20260506004740 27 95 0.0 0.0 0.00 0.00 0.00 67 1053.2
20260506004239 27 104 0.0 0.0 0.00 0.00 0.00 67 1052.9
20260506003734 28 105 0.0 0.0 0.00 0.00 0.00 67 1053.1
20260506003231 28 106 0.0 0.0 0.00 0.00 0.00 63 1052.9
20260506002727 29 123 0.0 0.0 0.00 0.00 0.00 59 1053.0
20260506002223 29 128 0.0 0.0 0.00 0.00 0.00 58 1053.0
20260506001719 30 127 0.0 0.0 0.00 0.00 0.00 57 1053.0
20260506001217 30 114 0.0 0.0 0.00 0.00 0.00 56 1052.9
20260506000713 31 168 0.0 1.6 0.00 0.00 0.00 55 1053.0
20260506000212 31 143 0.0 0.0 0.00 0.00 0.00 54 1053.0
20260505235708 31 171 0.0 0.0 0.00 0.00 0.00 53 1053.2
20260505235206 31 180 0.0 1.6 0.00 0.00 0.00 52 1052.9
20260505234703 31 161 0.0 1.6 0.00 0.00 0.00 53 1053.2
20260505234200 31 231 0.0 1.6 0.00 0.00 0.00 53 1053.2
20260505233656 32 165 1.6 4.8 0.00 0.00 0.00 50 1053.2
20260505233154 32 181 0.0 1.6 0.00 0.00 0.00 51 1053.3
20260505232652 32 201 0.0 1.6 0.00 0.00 0.00 53 1053.3
20260505232149 32 222 0.0 1.6 0.00 0.00 0.00 52 1053.3
20260505231645 32 199 0.0 1.6 0.00 0.00 0.00 51 1053.3
20260505231145 32 274 0.0 1.6 0.00 0.00 0.00 52 1053.2
20260505230642 32 185 0.0 1.6 0.00 0.00 0.00 51 1053.0
20260505230138 32 210 1.6 1.6 0.00 0.00 0.00 52 1053.1
20260505225634 31 234 1.6 1.6 0.00 0.00 0.00 54 1053.1
20260505225131 31 137 0.0 0.0 0.00 0.00 0.00 56 1053.1
20260505224628 31 174 1.6 3.2 0.00 0.00 0.00 55 1053.2
20260505224125 31 211 1.6 1.6 0.00 0.00 0.00 55 1053.2
20260505223622 31 211 1.6 3.2 0.00 0.00 0.00 51 1053.1
20260505223118 31 228 1.6 4.8 0.00 0.00 0.00 52 1053.1
20260505222615 31 174 3.2 6.4 0.00 0.00 0.00 51 1053.2
20260505222111 31 248 3.2 4.8 0.00 0.00 0.00 50 1053.2
20260505221608 31 216 3.2 6.4 0.00 0.00 0.00 51 1053.4
20260505221105 31 200 4.8 6.4 0.00 0.00 0.00 50 1053.3
20260505220602 31 210 0.0 4.8 0.00 0.00 0.00 52 1053.4
20260505220100 32 208 3.2 9.7 0.00 0.00 0.00 49 1053.3
20260505215557 31 176 1.6 4.8 0.00 0.00 0.00 51 1053.3
20260505215055 32 213 3.2 4.8 0.00 0.00 0.00 48 1053.2
20260505214553 32 201 3.2 4.8 0.00 0.00 0.00 50 1053.1
20260505214050 31 207 3.2 4.8 0.00 0.00 0.00 51 1053.3
20260505213548 31 215 1.6 3.2 0.00 0.00 0.00 53 1053.2
20260505213044 31 230 3.2 6.4 0.00 0.00 0.00 48 1053.3
20260505212540 31 297 3.2 6.4 0.00 0.00 0.00 51 1053.3
20260505212038 31 272 6.4 9.7 0.00 0.00 0.00 49 1053.4
20260505211535 31 219 3.2 4.8 0.00 0.00 0.00 52 1053.4
20260505211031 31 256 6.4 11.3 0.00 0.00 0.00 50 1053.3
20260505210528 31 227 4.8 6.4 0.00 0.00 0.00 51 1053.6
20260505210025 31 218 3.2 4.8 0.00 0.00 0.00 49 1053.5
20260505205523 31 193 1.6 3.2 0.00 0.00 0.00 50 1053.5
20260505205020 31 202 3.2 11.3 0.00 0.00 0.00 54 1053.6
20260505204518 31 275 4.8 9.7 0.00 0.00 0.00 53 1053.6
20260505204015 31 237 3.2 9.7 0.00 0.00 0.00 55 1053.7
20260505203511 31 231 4.8 4.8 0.00 0.00 0.00 52 1053.8
20260505203008 31 205 3.2 6.4 0.00 0.00 0.00 56 1053.9
20260505202504 31 204 4.8 4.8 0.00 0.00 0.00 54 1054.1
20260505202000 31 237 9.7 12.9 0.00 0.00 0.00 54 1054.2
20260505201457 31 234 6.4 9.7 0.00 0.00 0.00 52 1054.2
20260505200955 31 260 6.4 12.9 0.00 0.00 0.00 53 1054.3
20260505200453 31 267 9.7 12.9 0.00 0.00 0.00 53 1054.2
20260505195948 31 210 3.2 9.7 0.00 0.00 0.00 55 1054.2
20260505195446 31 236 4.8 11.3 0.00 0.00 0.00 58 1054.2
20260505194943 30 222 6.4 9.7 0.00 0.00 0.00 55 1054.2
20260505194440 30 232 1.6 11.3 0.00 0.00 0.00 59 1054.4
20260505193940 30 244 4.8 11.3 0.00 0.00 0.00 58 1054.7
20260505193438 30 241 4.8 9.7 0.00 0.00 0.00 60 1054.4
20260505192935 30 201 11.3 14.5 0.00 0.00 0.00 58 1054.4
20260505192434 30 232 3.2 11.3 0.00 0.00 0.00 59 1054.9
20260505191931 30 229 4.8 6.4 0.00 0.00 0.00 61 1054.8
20260505191430 30 193 4.8 9.7 0.00 0.00 0.00 61 1054.7
20260505190926 29 208 8.0 12.9 0.00 0.00 0.00 60 1054.8
20260505190421 30 256 9.7 14.5 0.00 0.00 0.00 62 1054.8
20260505185916 30 329 6.4 11.3 0.00 0.00 0.00 63 1054.9
20260505185414 30 193 6.4 12.9 0.00 0.00 0.00 63 1055.0
20260505184910 29 177 4.8 14.5 0.00 0.00 0.00 60 1055.1
20260505184407 30 212 6.4 16.1 0.00 0.00 0.00 64 1054.9
20260505183904 30 222 8.0 14.5 0.00 0.00 0.00 64 1055.0
20260505183401 29 208 6.4 9.7 0.00 0.00 0.00 65 1055.0
20260505182857 29 211 6.4 9.7 0.00 0.00 0.00 65 1055.1
20260505182354 29 228 4.8 14.5 0.00 0.00 0.00 64 1055.3
20260505181851 29 194 3.2 6.4 0.00 0.00 0.00 67 1055.1
20260505181348 28 248 3.2 11.3 0.00 0.00 0.00 64 1055.5
20260505180845 29 173 3.2 12.9 0.00 0.00 0.00 63 1055.3
20260505180341 28 187 4.8 11.3 0.00 0.00 0.00 67 1055.4
20260505175838 28 202 6.4 9.7 0.00 0.00 0.00 65 1055.4
20260505175334 28 271 6.4 11.3 0.00 0.00 0.00 67 1055.4
20260505174831 28 215 4.8 16.1 0.00 0.00 0.00 68 1055.5
20260505174329 27 178 3.2 14.5 0.00 0.00 0.00 68 1055.6
20260505173824 27 209 9.7 11.3 0.00 0.00 0.00 68 1055.4
20260505173321 27 227 6.4 12.9 0.00 0.00 0.00 69 1055.3
20260505172818 27 259 9.7 12.9 0.00 0.00 0.00 68 1055.7
20260505172316 27 221 9.7 12.9 0.00 0.00 0.00 69 1055.6
20260505171810 28 192 6.4 11.3 0.00 0.00 0.00 66 1055.4
20260505171307 28 180 6.4 11.3 0.00 0.00 0.00 68 1055.5
20260505170803 27 196 3.2 6.4 0.00 0.00 0.00 70 1055.5
20260505170301 27 232 8.0 11.3 0.00 0.00 0.00 71 1055.4
20260505165755 27 231 11.3 14.5 0.00 0.00 0.00 70 1055.6
20260505165251 26 210 3.2 6.4 0.00 0.00 0.00 72 1055.6
20260505164747 26 188 1.6 3.2 0.00 0.00 0.00 76 1055.5
20260505164244 26 200 9.7 12.9 0.00 0.00 0.00 72 1055.6
20260505163742 26 218 6.4 12.9 0.00 0.00 0.00 75 1055.7
20260505163241 25 160 1.6 11.3 0.00 0.00 0.00 76 1055.7
20260505162737 25 205 6.4 9.7 0.00 0.00 0.00 77 1055.8
20260505162235 25 227 4.8 11.3 0.00 0.00 0.00 76 1055.5
20260505161731 25 208 4.8 9.7 0.00 0.00 0.00 77 1055.6
20260505161230 25 207 4.8 9.7 0.00 0.00 0.00 77 1055.7
20260505160726 24 194 9.7 11.3 0.00 0.00 0.00 78 1055.5
20260505160225 25 243 3.2 6.4 0.00 0.00 0.00 78 1055.4
20260505153203 24 229 6.4 11.3 0.00 0.00 0.00 80 1055.2
20260505152700 23 244 3.2 9.7 0.00 0.00 0.00 81 1055.4
20260505152156 23 193 4.8 6.4 0.00 0.00 0.00 80 1055.3
20260505151651 23 215 6.4 11.3 0.00 0.00 0.00 80 1055.4
20260505151149 23 200 1.6 9.7 0.00 0.00 0.00 82 1055.3
20260505150645 23 225 6.4 11.3 0.00 0.00 0.00 81 1055.4
20260505150142 23 196 3.2 11.3 0.00 0.00 0.00 82 1055.4
20260505140610 21 167 3.2 6.4 0.00 0.00 0.00 87 1055.3
20260505140108 21 162 1.6 6.4 0.00 0.00 0.00 88 1055.3
20260505125024 18 160 1.6 3.2 0.00 0.00 0.00 98 1054.5